Theta_e
346 346 345 345 346 346 349 350 349 347 347 349 349 348 350 352 354 356 357 357 357 357 358 357 357 357 358 358 357 357 357 356 355 355 357 357 355 354 353 354 355 355 355 356 356 357 355 354 354 353 352 349 348 348 347 346 344 338 335 337 340 339 337
347 348 347 347 347 347 348 349 348 347 347 348 349 349 350 351 353 355 356 357 357 357 358 358 357 357 357 358 357 358 357 356 356 355 356 357 356 355 354 354 355 354 355 354 354 355 354 354 353 353 352 350 347 347 347 346 342 337 337 338 340 339 336
346 348 348 348 349 348 348 349 348 348 347 348 350 349 351 351 352 354 356 357 357 357 357 358 358 358 357 357 357 357 358 357 357 356 356 357 356 356 355 354 355 355 355 354 354 355 353 354 354 352 352 350 348 347 346 346 342 338 337 338 339 339 337
347 347 348 349 350 349 348 349 349 348 347 348 350 350 351 351 352 353 355 357 358 357 358 358 359 359 358 357 357 357 358 357 357 357 357 357 357 357 357 356 355 355 355 355 354 354 353 353 353 352 352 350 349 347 345 346 344 340 338 339 339 339 337
347 346 348 348 350 350 350 350 349 348 348 349 350 351 351 352 352 354 355 357 358 358 358 358 359 359 359 358 358 357 357 357 357 358 358 358 358 358 357 357 356 356 356 355 354 353 353 353 353 352 352 350 350 348 345 346 346 342 339 339 339 339 338
346 346 348 348 348 350 350 350 349 348 348 349 350 351 351 352 352 354 356 357 359 359 359 359 359 360 360 359 359 358 357 357 358 358 359 359 359 358 358 358 357 357 356 355 354 353 352 352 352 352 352 351 350 349 346 346 347 343 340 339 338 338 338
345 346 346 347 348 349 349 350 349 349 349 349 350 351 352 352 353 354 356 358 359 360 360 360 360 360 360 360 360 359 358 358 358 358 359 359 359 359 358 358 357 357 356 355 354 353 352 352 352 352 351 351 350 349 347 347 347 343 340 338 337 338 338
345 347 346 347 348 348 349 351 351 350 350 350 351 352 352 352 354 354 356 358 359 361 361 361 361 361 360 361 360 360 360 359 359 359 359 359 359 359 358 358 358 357 356 355 354 353 353 353 353 352 352 351 351 350 348 348 346 343 340 338 337 338 339
346 347 346 346 346 347 349 350 352 350 350 351 351 352 353 353 354 354 356 358 359 361 362 361 362 361 361 361 360 361 360 360 360 359 359 360 359 359 359 358 358 357 356 355 354 354 353 353 353 353 352 351 351 350 348 346 344 342 341 339 338 338 339
348 347 348 348 346 348 349 350 353 354 353 353 351 352 354 353 354 354 355 357 359 361 361 362 362 362 362 362 361 361 361 361 361 360 360 360 359 359 360 358 358 357 357 356 355 354 354 353 353 353 353 352 351 350 347 345 344 342 342 342 340 338 338
348 348 349 349 347 349 350 351 356 357 356 354 352 353 354 353 354 355 355 357 358 360 362 362 363 362 362 362 361 362 361 361 361 361 360 360 359 359 359 359 359 358 357 357 356 355 355 354 354 353 353 352 351 349 348 345 344 343 342 343 342 339 337
349 351 350 350 350 350 352 355 356 358 357 354 352 353 354 354 355 354 355 356 357 360 362 362 363 363 363 363 362 362 362 361 361 361 361 360 360 359 359 359 359 358 358 357 356 356 355 355 354 353 352 352 351 350 348 346 345 344 344 343 342 340 338
348 350 350 351 351 351 354 356 357 357 357 354 352 353 354 354 355 355 355 356 357 359 361 361 363 363 363 363 363 362 362 362 361 361 361 361 360 359 359 358 358 358 358 358 357 357 356 355 355 354 353 352 351 350 348 347 346 345 344 343 342 341 340
350 350 350 351 351 353 357 357 358 357 357 356 352 353 355 355 354 355 355 356 356 358 360 362 363 364 364 363 363 362 362 361 362 361 361 361 360 359 359 358 358 358 358 358 358 357 356 356 355 354 353 352 351 350 348 347 346 345 344 343 342 342 341
350 348 350 352 352 353 355 355 357 357 357 358 354 353 355 355 355 355 355 356 356 357 359 361 363 363 364 364 363 363 362 362 362 362 361 361 361 360 359 358 358 358 357 358 358 357 357 356 355 354 353 352 351 349 348 347 346 345 344 343 343 342 341
350 348 349 351 352 352 353 354 356 357 358 360 358 355 355 355 355 355 355 355 356 357 359 360 362 363 364 364 364 363 362 362 362 361 361 361 360 360 360 359 358 358 358 358 358 357 357 356 356 355 354 353 351 350 348 347 346 345 345 344 344 343 342
351 350 349 350 350 351 352 353 356 358 360 362 360 356 355 356 357 356 356 356 356 356 357 359 361 363 363 364 364 363 363 362 362 362 361 361 361 361 360 359 359 358 358 358 358 358 357 357 356 356 355 354 353 351 350 348 347 346 345 345 345 344 343
356 354 352 352 352 353 354 355 358 360 360 360 358 356 356 357 357 356 357 357 355 356 357 358 360 362 362 364 364 364 364 363 362 362 362 362 361 361 360 360 359 359 358 358 358 358 358 357 357 356 355 354 354 353 351 350 348 347 346 346 346 345 344
359 356 354 354 354 356 356 356 358 359 359 357 355 355 357 358 358 358 357 357 356 356 356 357 359 360 362 363 364 364 364 363 363 362 362 362 361 361 361 360 360 359 359 358 359 358 358 358 357 357 356 355 354 353 352 351 350 348 347 348 348 346 344
361 358 357 356 355 356 356 356 356 356 355 354 353 355 357 358 359 359 358 357 357 356 356 357 359 360 361 362 363 364 364 363 363 362 362 362 361 361 361 361 360 360 359 359 359 359 359 359 358 358 357 356 355 354 353 352 350 349 349 349 349 347 345
361 359 357 356 355 354 354 356 356 355 353 352 352 355 356 358 360 360 359 358 358 357 357 357 358 360 361 362 363 364 364 364 364 363 363 362 362 362 362 361 361 360 359 359 358 359 359 359 359 358 357 357 356 355 353 352 351 350 350 350 350 348 346
357 357 355 357 358 357 356 354 353 353 352 352 353 355 355 358 360 360 360 360 358 357 357 357 358 360 360 362 363 363 364 364 364 363 363 362 362 362 362 362 361 360 360 359 359 359 360 360 359 359 358 357 356 355 354 353 351 351 351 351 350 348 346
344 348 351 358 363 361 355 351 350 351 351 352 354 356 356 357 359 360 361 360 359 359 358 357 358 359 360 361 362 363 363 364 363 363 363 362 362 362 362 362 362 361 361 360 360 360 360 360 360 360 359 358 357 355 354 353 352 352 352 352 351 348 345
343 343 345 351 359 361 355 351 353 354 355 356 356 356 357 358 358 360 361 361 361 360 358 358 358 359 360 361 361 362 364 364 363 363 363 362 362 362 362 362 362 362 362 361 361 361 361 361 360 360 360 359 358 357 355 354 353 353 353 352 351 348 345
354 353 352 352 355 356 353 353 354 354 356 360 360 360 361 360 359 361 361 361 361 361 359 359 358 358 359 360 361 362 363 364 364 363 363 363 362 362 362 363 363 363 362 362 362 362 362 361 360 360 360 359 358 357 356 355 354 353 352 351 350 348 345
354 355 358 357 354 351 347 349 356 358 356 358 361 363 362 362 361 362 362 362 362 361 361 360 359 359 359 359 360 362 363 364 365 364 364 363 363 363 363 363 363 363 363 363 363 363 362 361 361 360 359 358 358 357 355 354 353 352 351 350 350 348 345
348 349 353 354 353 354 351 348 352 356 355 356 360 362 364 364 363 362 362 363 362 362 362 360 360 360 359 360 360 361 363 364 365 365 365 364 364 364 363 364 364 364 363 363 362 362 361 360 360 359 358 357 356 355 353 352 352 351 350 350 349 348 345
346 347 348 350 351 353 353 353 354 354 355 356 357 358 362 364 363 362 363 363 362 363 363 362 361 360 359 360 360 361 364 365 365 366 366 365 365 365 364 365 364 363 363 362 360 360 359 358 357 355 353 351 351 351 351 350 350 350 349 348 348 347 345
346 346 346 347 349 349 351 356 356 353 355 359 359 358 361 363 363 364 362 362 363 364 363 363 362 361 360 360 361 362 364 366 366 367 367 366 366 365 364 365 363 362 361 359 358 357 355 353 352 350 348 346 346 347 348 348 347 347 346 346 346 345 345
344 344 344 344 346 347 349 353 354 353 356 361 362 362 363 363 365 364 363 363 364 363 364 364 363 362 362 362 362 364 366 367 367 367 367 366 365 364 363 362 361 359 358 357 356 353 350 349 349 347 345 344 344 344 344 344 344 343 342 343 342 342 343
342 343 343 343 343 345 347 351 352 351 354 358 360 362 364 364 366 365 364 365 364 364 365 365 364 365 365 364 365 366 367 368 368 367 367 365 364 363 361 359 357 354 353 353 352 350 347 346 346 345 344 343 343 342 341 341 341 340 339 339 339 340 339
341 341 343 343 343 343 344 347 348 348 348 349 352 355 359 363 364 364 364 367 367 366 366 367 367 367 366 367 368 368 367 367 366 365 364 363 362 361 359 357 355 352 350 350 349 347 345 344 343 344 344 343 341 340 338 338 338 337 337 338 338 338 338
339 341 342 342 343 342 342 343 346 346 346 346 347 349 352 356 359 360 362 364 365 365 365 364 365 367 368 368 368 367 367 365 363 361 360 359 358 357 355 354 353 350 349 348 346 345 344 343 343 343 342 340 339 338 337 337 336 336 336 336 337 337 337
338 339 340 340 342 343 343 343 344 346 346 346 347 348 349 350 352 354 358 360 359 360 360 356 355 359 364 367 366 365 364 362 359 357 356 354 353 352 351 351 352 350 349 349 348 346 344 342 342 342 340 339 339 339 339 338 337 337 336 335 336 336 335
340 340 339 340 341 343 343 343 344 344 344 344 346 347 346 346 347 349 352 355 356 358 356 351 348 350 353 358 359 359 358 357 355 352 350 348 348 347 347 348 350 350 349 349 350 350 347 344 343 341 340 340 340 339 339 338 338 338 337 337 337 336 335
340 341 341 341 341 342 343 343 343 342 341 342 345 346 345 345 346 347 348 349 351 352 349 346 345 345 345 347 348 347 347 347 346 344 343 342 342 341 341 343 346 348 348 347 347 348 347 345 343 342 341 340 339 339 339 339 339 339 338 339 339 338 337
337 339 341 342 343 343 342 342 342 342 340 340 342 344 344 344 345 346 346 346 347 347 346 345 345 344 343 343 343 342 342 341 340 340 339 338 338 339 338 338 340 343 345 345 344 344 344 344 343 342 341 340 340 340 339 340 340 340 340 340 339 338 338
334 336 337 339 342 343 343 342 343 343 341 340 340 342 343 343 344 344 344 344 344 344 344 343 343 342 341 340 339 339 340 339 338 338 337 336 337 338 338 337 335 335 338 341 343 343 343 342 342 341 340 340 340 341 341 341 341 341 340 340 339 338 337
Wind_Speed
17 17 18 16 17 18 18 19 20 22 27 31 33 37 38 39 40 40 40 43 44 43 44 44 43 44 44 43 42 41 40 40 40 39 37 37 36 36 36 35 35 36 37 36 34 35 35 33 33 32 31 32 32 32 30 29 27 26 24 23 24 24 22
16 16 17 17 17 18 19 20 20 23 27 30 33 36 37 39 40 41 41 42 44 44 44 44 44 43 43 43 42 41 41 40 40 39 38 37 36 36 37 36 36 37 37 36 35 35 36 35 35 35 33 32 33 33 33 31 29 28 26 25 25 24 22
16 16 17 18 17 18 19 19 20 24 28 30 32 35 38 41 43 43 42 41 42 42 42 43 44 43 43 42 41 41 41 41 40 39 38 37 37 36 37 37 37 37 37 36 36 36 37 37 37 37 35 34 33 34 35 34 32 30 28 27 26 25 24
18 18 18 18 19 19 19 19 19 23 29 32 36 38 41 43 44 43 42 42 42 42 42 43 43 43 43 43 42 41 41 41 40 40 39 38 37 36 37 37 36 37 37 37 37 37 38 38 38 38 37 35 35 35 36 36 35 32 30 28 28 27 26
19 18 16 17 17 17 17 18 18 22 28 33 37 40 42 43 41 41 41 42 43 44 45 45 44 43 42 42 42 41 42 42 40 40 39 38 36 36 37 38 37 37 38 38 38 38 38 38 39 39 38 37 36 36 37 38 36 35 32 30 30 29 28
18 16 15 15 16 16 17 18 19 24 30 33 36 38 38 39 40 40 41 41 42 43 43 44 43 43 42 41 41 40 41 41 41 40 39 38 37 37 38 39 38 38 38 38 39 39 40 39 40 40 39 39 38 38 39 39 38 37 35 33 33 32 30
17 16 16 16 16 17 18 18 19 25 31 33 34 35 35 37 39 40 40 40 41 41 41 42 43 42 42 41 41 40 40 40 40 40 38 38 38 38 38 39 39 39 39 39 40 41 41 40 41 41 40 40 40 40 40 40 39 39 37 35 34 33 32
19 17 17 17 17 18 17 16 17 21 27 28 29 31 34 36 37 37 38 40 41 41 41 43 43 43 42 41 40 40 40 40 40 40 39 38 38 38 39 39 40 40 40 40 41 41 41 41 41 41 41 41 41 41 41 41 40 40 39 37 36 35 33
18 18 18 18 19 18 16 16 17 19 22 25 27 30 33 34 35 37 40 40 40 41 43 44 44 44 42 41 41 41 41 40 39 39 39 39 39 39 40 40 40 40 41 42 42 42 42 42 41 41 42 42 42 41 41 41 41 41 40 38 37 36 35
18 18 19 19 19 17 16 15 14 15 17 19 23 27 31 33 35 36 37 38 39 41 43 43 43 43 42 41 41 41 41 40 39 39 40 40 40 40 41 40 40 40 42 42 42 42 42 42 41 41 42 42 42 42 42 42 42 41 40 39 38 38 38
17 17 18 19 19 17 14 12 11 13 13 15 21 26 30 33 35 35 36 38 39 39 40 41 41 41 42 42 41 41 41 41 40 40 41 41 41 41 41 40 40 41 42 42 42 42 42 41 41 41 42 43 43 43 43 43 42 41 41 40 39 38 38
15 16 17 19 17 14 13 12 13 15 14 15 20 26 29 32 34 35 36 38 38 37 37 39 40 40 41 41 40 41 42 41 41 41 42 43 42 41 41 41 40 41 42 42 42 41 41 41 42 42 43 43 43 43 43 43 42 42 41 40 39 37 37
14 15 16 17 15 12 12 12 14 16 15 16 21 26 29 32 34 35 35 36 37 37 37 38 39 39 40 40 40 40 42 43 43 43 43 44 43 42 41 41 41 42 42 42 41 40 40 41 43 43 43 43 43 43 43 42 41 41 40 38 38 37 36
11 12 12 12 12 12 13 13 15 16 16 17 21 26 29 30 33 34 34 35 36 36 37 38 38 38 39 40 40 41 42 44 44 44 44 43 43 41 41 41 42 42 41 41 40 40 41 42 42 42 41 41 42 42 41 40 40 39 38 37 36 36 36
16 15 13 13 14 14 15 15 15 16 16 16 17 21 24 27 30 32 33 35 37 37 39 39 39 39 39 39 40 42 43 43 43 43 43 42 42 42 42 42 42 41 40 40 40 41 41 41 40 40 39 40 40 39 39 39 39 39 38 37 37 37 36
15 15 14 15 16 16 16 17 16 16 15 14 14 17 21 24 28 31 33 34 37 38 40 41 40 39 39 40 42 42 42 42 42 42 42 42 42 42 42 42 41 41 40 40 40 40 39 39 39 39 39 38 38 38 38 39 39 39 39 38 38 39 38
12 13 14 15 16 16 16 15 14 13 14 14 15 19 22 25 27 30 32 34 36 39 40 41 40 40 41 42 41 40 41 41 41 41 41 42 42 42 43 42 41 40 40 39 39 39 38 38 38 38 38 38 37 38 39 39 39 38 39 39 40 41 40
11 12 13 13 13 12 12 13 13 14 14 14 16 20 24 26 27 29 31 34 38 40 40 41 41 40 41 41 40 39 41 41 41 41 41 41 42 42 42 41 40 39 38 38 38 38 37 37 38 38 38 37 38 39 40 40 39 39 39 40 41 42 40
10 10 10 10 10 10 11 11 11 13 14 14 17 24 30 31 30 31 35 39 41 40 39 40 41 41 41 40 40 40 42 41 40 40 41 41 42 41 40 39 39 39 39 39 38 37 37 37 37 37 37 38 39 40 39 39 39 40 40 41 42 42 41
11 11 11 10 10 10 10 10 11 13 17 22 27 32 35 35 35 37 40 41 40 39 39 40 40 40 40 40 41 42 42 41 40 40 40 40 40 39 38 39 39 39 39 38 37 36 36 37 37 37 38 39 39 39 39 38 39 40 40 41 41 41 41
11 12 13 13 14 15 15 15 15 14 17 24 30 32 31 33 37 38 38 37 37 39 40 41 40 39 39 39 40 41 41 40 40 40 39 39 38 38 38 38 38 38 38 36 36 37 37 37 37 37 38 39 38 38 37 38 39 39 39 40 40 40 41
7 9 10 11 13 15 15 16 17 18 21 26 28 28 29 33 36 35 33 34 37 38 40 40 38 38 38 38 40 41 42 42 41 39 38 38 37 37 37 37 37 37 37 35 35 36 37 37 37 38 38 37 37 37 36 36 37 38 38 38 38 39 40
3 4 5 6 8 11 14 16 18 21 24 27 28 30 32 36 37 34 32 33 34 35 37 36 36 37 38 38 40 42 42 42 40 39 38 37 37 37 37 37 37 37 36 35 34 35 36 37 37 38 38 37 37 36 35 34 36 37 37 37 37 38 39
7 6 6 6 7 9 12 17 21 22 22 21 22 28 32 34 33 30 28 30 32 33 33 33 35 37 38 39 41 42 42 42 40 38 37 37 38 38 38 37 37 36 36 36 36 36 36 36 36 36 37 37 38 37 36 35 36 36 36 36 36 38 38
9 9 8 7 7 8 12 17 20 22 22 18 19 24 26 27 29 28 26 28 31 31 30 32 36 38 40 42 42 41 41 40 39 38 38 38 39 39 38 38 36 36 36 36 36 36 35 34 34 34 35 36 37 37 37 36 35 35 34 34 35 37 37
8 9 9 10 10 10 11 15 16 15 15 17 24 29 27 25 25 24 25 28 29 28 29 34 39 42 43 43 40 39 39 39 39 39 39 39 40 39 38 37 35 34 35 35 35 34 33 33 33 33 33 33 34 34 34 33 32 32 32 33 34 36 35
6 7 9 10 13 15 9 6 9 12 16 20 23 23 24 28 27 25 27 27 24 27 34 40 43 42 41 39 37 38 40 40 41 41 40 40 39 37 36 36 35 36 36 34 33 33 32 32 32 30 29 28 28 28 28 29 28 28 30 31 32 34 33
9 9 10 11 14 16 12 8 4 4 10 15 16 13 12 16 20 23 27 25 24 32 39 40 39 37 35 35 36 38 40 41 42 42 40 38 38 36 35 35 36 36 35 34 33 32 31 29 28 26 24 22 21 22 23 24 23 24 26 28 29 31 32
9 8 9 10 12 13 10 7 7 8 8 4 8 11 11 11 13 17 18 19 28 41 44 39 37 35 34 34 36 37 39 41 42 41 39 38 39 38 35 34 34 35 35 34 33 30 28 26 25 23 21 18 17 18 19 19 19 19 20 23 25 26 27
9 9 9 8 11 13 11 6 5 7 8 7 1 7 13 17 17 13 12 18 26 31 32 34 36 35 33 34 34 36 37 38 39 39 39 39 39 37 34 33 33 33 33 33 31 28 25 23 23 22 20 19 17 16 16 17 16 15 16 19 22 24 25
9 9 9 10 12 15 13 9 8 8 6 6 4 2 11 18 21 17 18 24 26 22 23 28 31 32 32 33 33 34 34 35 36 37 38 40 40 38 36 34 33 31 30 30 29 27 24 22 22 22 21 20 19 17 17 17 15 14 14 17 21 23 25
9 9 9 9 11 14 14 11 10 10 9 12 14 11 4 9 14 13 13 18 20 20 21 23 23 26 29 30 32 34 35 34 34 35 37 39 40 39 38 37 35 32 30 29 28 26 25 24 23 23 22 22 21 20 20 18 15 14 16 17 19 22 24
9 9 9 9 10 12 11 10 10 10 9 12 17 17 13 6 2 3 4 4 6 11 13 11 12 19 25 28 31 34 37 36 35 35 36 37 37 37 36 36 36 34 31 29 28 26 25 25 25 25 24 23 22 22 21 20 17 17 19 20 21 22 24
8 8 9 11 12 12 11 8 8 10 10 11 14 15 12 10 7 1 6 9 12 16 17 12 3 6 16 26 31 32 35 37 38 36 35 35 35 35 34 34 35 34 32 32 31 29 27 27 27 27 26 25 24 22 20 20 20 21 22 23 23 24 25
8 7 8 11 12 10 10 9 8 9 10 10 13 14 11 9 7 3 3 9 16 21 21 18 13 10 5 6 17 23 27 32 36 36 35 35 36 34 32 32 34 33 32 31 30 29 30 29 29 28 28 27 25 23 21 21 23 24 23 22 23 24 24
8 7 8 11 11 8 7 8 8 9 9 11 13 13 11 7 3 2 4 10 19 24 25 23 20 17 15 11 8 15 20 21 25 29 32 35 37 35 29 27 29 31 31 29 27 27 28 28 28 27 26 25 23 22 22 22 23 22 21 20 20 21 22
10 9 10 12 10 8 8 7 7 6 6 10 14 14 12 9 5 6 9 14 21 28 31 30 27 24 20 13 11 15 19 18 19 23 26 30 35 36 32 27 24 23 24 25 24 22 22 22 21 21 20 20 20 21 22 22 20 19 20 19 18 17 17
14 14 14 14 13 10 9 8 8 7 4 7 13 14 10 9 7 7 12 16 19 23 28 29 27 27 27 22 16 16 18 18 19 23 25 27 31 33 32 29 24 19 18 19 19 18 18 18 17 16 17 18 19 22 23 20 18 16 16 16 15 14 13
Wind_Direction
188 190 191 191 191 191 192 193 194 196 194 193 194 192 190 190 190 190 191 192 193 193 194 195 195 196 198 200 203 204 205 206 206 207 208 207 206 204 203 204 204 204 204 204 205 205 205 204 202 203 205 206 206 207 209 210 206 205 208 209 209 211 215
189 191 192 191 192 192 193 194 195 195 195 194 193 192 191 191 191 191 192 193 193 194 194 195 196 197 198 200 203 205 206 206 207 208 209 209 208 207 206 205 204 204 205 207 209 207 206 205 204 204 206 207 209 209 210 210 206 207 210 210 209 213 216
194 193 192 192 192 193 194 195 196 196 195 193 192 192 193 193 193 193 192 192 193 194 194 195 197 198 199 200 202 204 206 207 207 208 209 210 210 209 208 208 207 207 208 210 210 208 206 205 205 206 207 208 209 209 209 209 208 211 213 211 211 215 217
199 194 192 193 192 193 195 195 196 196 195 194 192 193 194 194 194 193 193 192 192 193 194 195 197 198 199 200 201 204 206 207 208 208 210 210 210 210 209 209 208 208 209 210 210 208 206 205 205 206 207 209 210 210 209 208 209 213 214 213 213 216 218
201 195 191 193 193 195 197 196 196 195 195 195 194 195 195 194 193 192 193 193 193 194 195 196 197 198 200 200 201 203 206 208 208 209 210 210 210 209 209 209 207 207 209 209 208 207 205 204 205 206 207 209 211 211 209 208 210 214 215 215 215 215 218
199 193 189 192 194 197 198 198 198 195 195 195 194 195 194 191 191 192 193 193 194 195 195 195 196 197 199 200 201 203 205 207 208 209 210 210 210 209 209 209 207 207 208 207 207 206 205 205 206 206 207 209 212 212 210 209 211 213 215 217 218 217 217
197 194 192 191 193 197 199 199 197 196 196 194 192 192 190 190 191 192 192 193 193 194 194 195 196 197 198 200 201 202 204 206 208 209 210 210 210 210 210 210 209 208 207 207 207 207 207 207 208 208 208 210 212 212 211 211 211 212 215 217 218 218 217
197 194 193 193 194 197 199 196 194 195 194 191 188 188 188 190 191 191 192 193 193 193 193 195 195 196 198 198 200 202 203 205 207 208 209 210 211 212 211 210 210 209 207 208 209 208 208 209 209 209 209 210 212 212 212 212 211 212 214 216 217 217 215
197 194 194 195 196 199 198 194 193 191 188 186 185 186 187 188 190 192 193 193 192 193 195 195 195 196 196 197 199 201 202 204 205 207 209 210 211 212 212 211 210 209 208 209 210 210 210 211 211 210 210 211 212 212 212 212 211 211 213 215 216 215 215
195 195 195 196 198 202 199 192 188 184 183 184 184 184 185 187 191 193 194 193 193 195 195 194 195 195 195 196 198 200 201 202 204 205 207 209 211 212 212 212 210 209 209 210 210 211 212 212 212 211 211 211 212 212 212 212 211 212 213 216 218 218 216
195 193 195 198 199 200 194 181 177 180 183 185 184 183 184 188 191 192 193 194 195 196 195 194 194 194 194 195 197 198 200 201 202 204 206 209 211 212 212 211 210 210 210 210 210 211 212 212 212 212 212 212 212 213 213 213 213 213 214 217 220 220 219
192 192 196 199 198 194 185 177 179 183 184 186 185 184 185 188 190 192 194 195 196 196 195 194 195 194 194 195 195 197 199 200 201 203 206 209 211 212 212 211 211 211 210 210 211 211 212 211 212 213 213 214 214 214 214 214 214 215 216 217 219 220 221
195 195 197 195 191 187 181 181 185 183 183 186 186 186 187 189 191 192 193 194 194 194 194 195 196 194 194 195 196 197 199 199 201 203 206 208 210 211 211 211 212 212 212 211 211 211 211 212 213 214 214 215 215 215 216 216 215 216 217 217 218 219 221
205 204 201 191 186 184 182 184 187 185 186 187 187 188 189 190 192 192 192 192 192 192 194 195 196 195 195 195 197 199 200 200 201 203 205 208 209 210 211 212 213 213 213 212 212 212 213 213 214 214 214 215 216 216 217 216 216 216 216 216 218 220 222
201 200 194 189 189 188 187 189 189 188 188 185 185 186 187 189 191 191 192 192 192 192 194 195 195 196 196 196 199 201 201 201 202 203 205 207 208 209 211 213 214 214 214 213 213 214 214 215 215 214 215 215 216 216 216 217 217 216 215 215 217 221 223
198 195 192 193 195 192 191 192 190 188 185 182 183 184 185 189 190 190 192 192 192 193 194 194 195 196 196 199 202 202 201 201 202 203 204 205 207 209 210 213 214 214 214 214 214 215 215 215 215 215 215 215 215 216 216 217 217 217 216 216 219 223 224
192 195 198 200 200 196 194 191 186 185 182 181 185 185 186 190 190 191 193 192 193 195 195 194 195 197 198 201 203 201 201 202 202 202 204 205 207 208 210 212 213 213 214 214 215 215 215 215 215 216 216 215 215 216 217 218 218 217 216 219 223 226 225
190 194 199 203 202 196 193 189 183 183 184 186 188 187 189 190 189 191 193 194 196 197 195 194 196 198 200 202 202 201 201 203 202 202 204 205 207 208 209 211 212 212 213 214 214 214 214 214 215 215 216 215 216 217 218 218 218 217 217 222 227 228 225
186 189 190 196 198 194 192 189 186 185 186 187 189 192 194 192 189 192 196 197 198 196 194 195 198 199 201 201 200 201 202 203 202 202 204 205 206 208 209 210 210 211 212 213 214 214 213 214 215 215 215 215 216 218 218 218 218 218 219 224 229 228 225
180 183 182 182 188 193 195 195 195 193 191 192 194 197 197 194 194 198 199 198 196 194 194 196 199 200 201 200 200 201 202 202 202 203 204 205 205 206 207 209 210 211 211 212 213 213 212 213 214 214 215 216 216 218 218 218 218 218 220 225 229 228 225
185 180 182 185 189 194 196 198 200 200 199 199 199 199 198 196 198 201 200 198 195 194 195 197 198 200 201 201 200 201 201 201 202 203 203 203 203 205 206 208 209 210 211 211 211 212 213 213 213 214 215 216 216 217 217 218 218 218 220 224 228 228 225
211 193 193 193 195 198 200 202 201 200 203 203 201 199 199 200 202 201 199 198 196 196 197 197 198 200 201 201 201 201 201 201 201 201 201 201 201 203 205 207 208 209 209 209 210 212 213 213 213 214 215 215 215 215 215 217 217 217 220 224 227 227 223
281 251 234 216 205 205 209 213 210 208 207 203 200 200 201 203 202 199 196 197 198 199 199 197 198 200 201 202 202 201 202 201 200 199 198 197 198 201 203 205 206 208 207 206 208 209 211 212 212 213 214 213 214 214 213 215 217 218 220 223 224 223 220
350 328 299 272 246 225 214 212 212 215 216 211 207 206 205 203 201 197 196 196 197 200 200 199 201 201 201 203 203 201 201 200 199 197 195 195 197 199 201 203 204 205 204 204 205 207 209 210 209 210 212 212 213 213 212 214 217 219 220 220 221 220 217
359 354 347 326 296 265 236 221 215 215 214 211 214 215 210 204 198 195 196 198 198 199 201 203 204 203 203 204 204 201 200 199 198 197 195 195 197 198 199 201 202 202 201 202 204 205 206 205 204 206 208 211 213 213 213 215 217 218 217 217 218 218 215
3 356 3 4 352 326 271 239 228 222 215 211 215 216 209 199 196 197 201 202 199 198 202 206 207 206 205 205 203 199 198 197 197 196 195 196 197 197 197 198 197 196 196 197 199 200 200 200 200 202 205 208 211 213 213 214 216 216 215 215 218 218 213
17 9 9 9 9 7 346 269 235 228 229 229 230 225 209 197 195 198 203 204 202 203 207 209 209 208 207 204 200 198 197 196 195 196 196 195 195 193 193 193 192 190 190 190 191 191 191 192 194 196 198 201 205 207 209 213 216 216 214 216 220 218 213
20 17 9 6 11 17 16 5 350 284 250 243 245 252 237 212 207 208 206 202 201 207 211 212 211 210 207 203 199 197 196 194 193 193 192 192 189 187 187 187 187 185 184 183 183 182 180 182 184 184 184 187 194 199 203 210 216 217 215 216 218 217 213
16 10 4 5 7 8 12 17 16 12 1 315 243 232 226 222 229 234 228 217 212 211 211 210 209 208 205 201 199 196 194 193 190 188 186 185 183 181 180 179 178 178 178 178 175 172 171 172 172 170 168 170 179 189 197 204 209 212 212 212 212 212 212
14 11 3 360 355 353 357 8 10 12 19 18 334 209 199 197 203 218 237 242 237 229 218 208 204 202 200 197 195 194 192 189 185 182 179 178 176 174 171 170 170 170 171 171 168 164 162 162 162 162 161 163 170 181 192 198 202 204 206 208 209 209 209
15 13 4 359 355 351 351 354 355 2 15 16 2 222 198 195 193 195 211 226 236 243 232 215 202 194 192 191 189 188 185 181 179 176 173 171 170 167 164 163 162 161 161 162 161 157 154 155 160 161 161 166 173 181 189 194 198 200 201 206 211 210 207
16 14 9 5 359 357 1 6 5 7 12 9 3 355 311 216 202 202 214 221 223 225 222 215 203 191 186 183 182 179 175 172 170 168 166 166 165 163 162 161 158 155 154 155 154 155 155 156 159 161 165 173 180 184 187 186 187 193 196 197 203 205 203
10 5 6 8 6 9 18 26 27 28 25 15 9 5 356 338 242 186 173 167 170 176 176 183 204 201 187 177 174 172 168 165 161 158 158 157 156 156 156 157 155 152 150 152 152 154 157 160 163 167 171 177 180 182 183 181 181 191 197 195 196 199 198
7 360 1 4 8 21 33 37 40 46 42 27 22 23 17 6 3 50 145 128 121 126 121 99 48 237 198 181 174 168 164 159 154 151 150 148 148 148 149 152 154 153 154 160 162 161 163 167 172 176 177 176 175 175 175 179 187 195 199 199 198 200 200
10 5 360 356 0 23 44 48 45 48 48 39 38 46 47 26 3 359 135 142 141 135 122 104 74 31 360 185 165 153 151 151 147 144 142 138 138 139 142 149 154 154 157 165 171 176 179 179 179 181 181 179 177 174 172 181 194 201 203 203 204 205 205
17 11 5 0 359 13 46 67 71 61 52 49 54 63 68 62 59 115 117 135 144 139 127 120 111 83 47 29 71 110 120 127 129 130 132 131 131 129 129 137 149 154 158 165 174 183 188 187 184 184 183 181 181 184 187 192 198 202 203 206 209 210 210
31 24 13 10 8 5 9 31 58 67 65 66 65 61 52 46 69 123 123 127 140 141 134 128 120 109 98 83 78 96 106 111 119 127 131 130 129 127 125 123 130 144 157 165 171 177 182 185 187 187 186 185 188 196 201 202 201 201 202 205 208 209 208
40 36 27 22 22 19 8 3 11 18 40 89 91 81 60 35 39 86 111 119 129 134 133 128 120 112 113 116 115 113 120 132 141 141 135 128 125 128 128 124 119 121 135 151 163 169 172 177 183 186 189 194 199 200 201 202 202 201 200 199 197 194 190